Location: Niagara
(43.2500°N, 79.0670°W)
Time: 07:09:10
(UTC-04:00)

Vanguard 3 - Visible Passes

Search period start: 19 October 2017 00:00
Search period end: 29 October 2017 00:00
Orbit: 510 x 3263 km, 33.3° (Epoch: 18 October)

Date Brightness Start Highest point End Pass type
(mag) Time Alt. Az. Time Alt. Az. Time Alt. Az.
19 Oct 10.9 02:56:20 14° SE 02:56:20 14° SE 03:00:51 10° ESE visible
19 Oct 9.9 05:00:56 18° SSW 05:08:33 30° SSE 05:16:01 10° ESE visible
20 Oct 10.3 03:51:38 24° SSE 03:53:54 25° SSE 04:02:08 10° ESE visible
20 Oct 9.4 05:56:14 12° SW 06:07:08 39° S 06:14:16 10° ESE visible
21 Oct 10.8 02:42:14 17° SE 02:42:14 17° SE 02:47:03 10° ESE visible
21 Oct 9.8 04:46:50 26° SSW 04:52:40 35° SSE 05:01:05 10° ESE visible
21 Oct 9.1 06:54:22 10° WSW 07:05:32 44° S 07:12:02 10° ESE visible
22 Oct 10.2 03:37:23 30° SSE 03:37:49 30° SSE 03:47:17 10° ESE visible
22 Oct 9.4 05:41:59 19° SW 05:51:20 44° S 05:59:13 10° ESE visible
23 Oct 10.7 02:27:52 19° ESE 02:27:52 19° ESE 02:32:30 10° ESE visible
23 Oct 9.8 04:32:27 34° SSW 04:36:39 41° SSE 04:45:59 10° E visible
23 Oct 9.2 06:37:26 10° WSW 06:49:48 47° S 06:56:56 10° ESE visible
24 Oct 10.2 03:22:53 34° SSE 03:22:53 34° SSE 03:32:12 10° E visible
24 Oct 9.4 05:27:28 26° SW 05:35:25 48° S 05:44:03 10° ESE visible
25 Oct 10.8 02:13:16 20° ESE 02:13:16 20° ESE 02:17:32 10° E visible
25 Oct 9.7 04:17:50 42° S 04:20:31 45° SSE 04:30:47 10° E visible
25 Oct 9.2 06:22:26 15° WSW 06:33:59 50° S 06:41:46 10° ESE visible
26 Oct 10.1 03:08:11 37° SE 03:08:11 37° SE 03:16:56 10° E visible
26 Oct 9.4 05:12:46 34° SW 05:19:24 52° S 05:28:50 10° ESE visible
27 Oct 10.8 01:58:30 20° ESE 01:58:30 20° ESE 02:02:17 10° E visible
27 Oct 9.7 04:03:04 49° S 04:04:16 50° SSE 04:15:27 10° E visible
27 Oct 9.3 06:07:39 20° WSW 06:18:03 51° S 06:26:33 10° ESE visible
28 Oct 10.2 02:53:21 37° SE 02:53:21 37° SE 03:01:30 10° E visible
28 Oct 9.5 04:57:55 41° SW 05:03:15 55° S 05:13:31 10° ESE visible
28 Oct 9.4 07:03:32 10° W 07:16:17 42° SSW 07:23:50 10° SE visible
